Le nostre stazioni meteo in Italia

Pubblicità
Il mio iltempo24.it
St. James's Park, Gran Bretagna (3770): Temperatura & dewpoint: 09.09.2019 20:00:00 - 15.09.2019 20:00:00 (BST)St. James's Park, Gran Bretagna (3770): Temperatura -20cm & Temperatura -100cm: 09.09.2019 20:00:00 - 15.09.2019 20:00:00 (BST)St. James's Park, Gran Bretagna (3770): precipitazioni: 09.09.2019 20:00:00 - 15.09.2019 20:00:00 (BST)
Data & Tempo tt [°C] td [°C] tt -20cm [°C] tt -100cm [°C] rr [mm]
15.09.2019 20:00:00 22,3 13,9 - - -
15.09.2019 19:00:00 22,4 14,0 - - 0,0
15.09.2019 18:00:00 24,8 13,3 - - 0,0
15.09.2019 17:00:00 25,7 13,0 - - 0,0
15.09.2019 16:00:00 26,3 13,2 - - 0,0
15.09.2019 15:00:00 25,9 13,6 - - 0,0
15.09.2019 14:00:00 24,7 13,0 - - 0,0
15.09.2019 13:00:00 24,1 13,1 - - 0,0
15.09.2019 12:00:00 21,6 11,4 - - 0,0
15.09.2019 11:00:00 19,2 10,6 - - 0,0
15.09.2019 10:00:00 15,7 9,8 17,2 17,7 0,0
15.09.2019 09:00:00 13,4 9,7 - - 0,0
15.09.2019 08:00:00 11,8 9,7 - - 0,0
15.09.2019 07:00:00 11,0 9,0 - - 0,0
15.09.2019 06:00:00 11,8 9,5 - - 0,0
15.09.2019 05:00:00 11,6 9,4 - - 0,0
15.09.2019 04:00:00 11,9 9,6 - - 0,0
15.09.2019 03:00:00 12,2 9,9 - - 0,0
15.09.2019 02:00:00 12,8 10,3 - - 0,0
15.09.2019 01:00:00 13,6 11,1 - - 0,0
15.09.2019 00:00:00 14,0 10,1 - - 0,0
14.09.2019 23:00:00 14,8 8,7 - - 0,0
14.09.2019 22:00:00 14,4 9,1 - - 0,0
14.09.2019 21:00:00 15,9 8,8 - - 0,0
14.09.2019 20:00:00 17,0 9,0 - - 0,0
14.09.2019 19:00:00 19,4 7,1 - - 0,0
14.09.2019 18:00:00 22,3 5,4 - - 0,0
14.09.2019 17:00:00 23,4 5,5 - - 0,0
14.09.2019 16:00:00 23,0 4,5 - - 0,0
14.09.2019 15:00:00 22,6 5,9 - - 0,0
14.09.2019 14:00:00 21,7 6,5 - - 0,0
14.09.2019 13:00:00 21,0 7,2 - - 0,0
14.09.2019 12:00:00 19,1 6,8 - - 0,0
14.09.2019 11:00:00 18,4 10,0 - - 0,0
14.09.2019 10:00:00 15,5 9,7 17,5 17,7 0,0
14.09.2019 09:00:00 13,9 9,7 - - 0,0
14.09.2019 08:00:00 11,0 9,5 - - 0,0
14.09.2019 07:00:00 10,0 8,5 - - 0,0
14.09.2019 06:00:00 10,3 8,3 - - 0,0
14.09.2019 05:00:00 11,2 8,2 - - 0,0
14.09.2019 04:00:00 12,1 8,5 - - 0,0
14.09.2019 03:00:00 13,2 9,1 - - 0,0
14.09.2019 02:00:00 13,4 9,4 - - 0,0
14.09.2019 01:00:00 14,0 9,5 - - 0,0
14.09.2019 00:00:00 14,7 9,7 - - 0,0
13.09.2019 23:00:00 15,3 10,0 - - 0,0
13.09.2019 22:00:00 15,5 11,3 - - 0,0
13.09.2019 21:00:00 16,3 11,7 - - 0,0
13.09.2019 20:00:00 18,1 9,9 - - 0,0
13.09.2019 19:00:00 19,7 4,2 - - 0,0
13.09.2019 18:00:00 20,5 3,9 - - 0,0
13.09.2019 17:00:00 21,6 4,2 - - 0,0
13.09.2019 16:00:00 22,0 5,3 - - 0,0
13.09.2019 15:00:00 20,7 4,7 - - 0,0
13.09.2019 14:00:00 20,9 6,0 - - 0,0
13.09.2019 13:00:00 19,7 7,0 - - 0,0
13.09.2019 12:00:00 19,1 7,7 - - 0,0
13.09.2019 11:00:00 17,4 7,8 - - 0,0
13.09.2019 10:00:00 15,8 8,2 17,7 17,7 0,0
13.09.2019 09:00:00 14,6 8,6 - - 0,0
13.09.2019 08:00:00 14,1 9,5 - - 0,0
13.09.2019 07:00:00 14,2 9,7 - - 0,0
13.09.2019 06:00:00 15,4 9,1 - - 0,0
13.09.2019 05:00:00 16,7 11,2 - - 0,0
13.09.2019 04:00:00 17,9 13,3 - - 0,0
13.09.2019 03:00:00 17,7 15,7 - - 0,0
13.09.2019 02:00:00 17,7 15,5 - - 0,0
13.09.2019 01:00:00 17,8 15,2 - - 0,0
13.09.2019 00:00:00 18,0 15,2 - - 0,0
12.09.2019 23:00:00 18,6 15,2 - - 0,0
12.09.2019 22:00:00 18,8 15,3 - - 0,0
12.09.2019 21:00:00 18,6 15,2 - - 0,0
12.09.2019 20:00:00 19,5 15,2 - - 0,0
12.09.2019 19:00:00 20,3 15,5 - - 0,0
12.09.2019 18:00:00 21,4 15,6 - - 0,0
12.09.2019 17:00:00 22,8 14,7 - - 0,0
12.09.2019 16:00:00 24,1 14,5 - - 0,0
12.09.2019 15:00:00 25,1 14,3 - - 0,0
12.09.2019 14:00:00 24,1 13,9 - - 0,0
12.09.2019 13:00:00 22,2 14,9 - - 0,0
12.09.2019 12:00:00 21,0 15,6 - - 0,0
12.09.2019 11:00:00 19,6 15,2 - - 0,0
12.09.2019 10:00:00 18,2 14,1 17,0 17,7 0,0
12.09.2019 09:00:00 16,2 13,3 - - 0,0
12.09.2019 08:00:00 14,4 12,6 - - 0,0
12.09.2019 07:00:00 13,4 12,2 - - 0,0
12.09.2019 06:00:00 13,5 12,4 - - 0,0
12.09.2019 05:00:00 13,9 12,3 - - 0,0
12.09.2019 04:00:00 14,7 12,5 - - 0,0
12.09.2019 03:00:00 15,9 12,9 - - 0,0
12.09.2019 02:00:00 16,2 13,1 - - 0,0
12.09.2019 01:00:00 16,4 13,4 - - 0,0
12.09.2019 00:00:00 16,4 13,8 - - 0,0
11.09.2019 23:00:00 16,7 13,7 - - 0,0
11.09.2019 22:00:00 17,6 14,5 - - 0,0
11.09.2019 21:00:00 18,2 15,1 - - 0,0
11.09.2019 20:00:00 19,4 15,7 - - 0,0
11.09.2019 19:00:00 19,9 16,3 - - 0,0
11.09.2019 18:00:00 20,7 16,2 - - 0,0
11.09.2019 17:00:00 20,0 16,4 - - 0,0
11.09.2019 16:00:00 19,3 16,4 - - 0,0
11.09.2019 15:00:00 20,0 15,4 - - 0,0
11.09.2019 14:00:00 20,4 15,6 - - 0,0
11.09.2019 13:00:00 20,8 15,0 - - 0,0
11.09.2019 12:00:00 20,3 14,9 - - 0,0
11.09.2019 11:00:00 18,1 14,3 - - 0,0
11.09.2019 10:00:00 16,9 13,4 17,0 17,7 0,0
11.09.2019 09:00:00 15,8 11,9 - - 0,0
11.09.2019 08:00:00 14,7 10,6 - - 0,0
11.09.2019 07:00:00 14,1 9,7 - - 0,0
11.09.2019 06:00:00 13,6 9,3 - - 0,0
11.09.2019 05:00:00 13,9 9,1 - - 0,0
11.09.2019 04:00:00 14,2 9,1 - - 0,0
11.09.2019 03:00:00 14,2 9,1 - - 0,0
11.09.2019 02:00:00 14,5 8,9 - - 0,0
11.09.2019 01:00:00 14,9 8,9 - - 0,0
11.09.2019 00:00:00 15,3 9,7 - - 0,0
10.09.2019 23:00:00 15,7 10,6 - - 0,0
10.09.2019 22:00:00 15,3 10,5 - - 0,0
10.09.2019 21:00:00 16,8 10,5 - - 0,0
10.09.2019 20:00:00 16,9 10,1 - - 0,0
10.09.2019 19:00:00 17,7 10,0 - - 0,0
10.09.2019 18:00:00 18,3 10,6 - - 0,0
10.09.2019 17:00:00 18,2 10,2 - - 0,0
10.09.2019 16:00:00 18,8 9,8 - - 0,0
10.09.2019 15:00:00 19,5 8,9 - - 0,0
10.09.2019 14:00:00 19,2 10,9 - - 0,0
10.09.2019 13:00:00 18,8 9,9 - - 0,0
10.09.2019 12:00:00 18,0 9,7 - - 0,0
10.09.2019 11:00:00 18,4 11,4 - - 0,0
10.09.2019 10:00:00 15,6 10,0 16,7 17,9 0,0
10.09.2019 09:00:00 14,5 10,8 - - 0,0
10.09.2019 08:00:00 12,4 11,9 - - 0,0
10.09.2019 07:00:00 11,4 10,6 - - 0,0
10.09.2019 06:00:00 11,7 10,2 - - 0,0
10.09.2019 05:00:00 13,0 10,8 - - 0,0
10.09.2019 04:00:00 13,2 11,1 - - 0,0
10.09.2019 03:00:00 13,1 10,5 - - 0,0
10.09.2019 02:00:00 13,3 10,8 - - 0,0
10.09.2019 01:00:00 13,4 10,1 - - 0,0
10.09.2019 00:00:00 14,2 10,0 - - 0,0
09.09.2019 23:00:00 14,7 9,8 - - 0,0
09.09.2019 22:00:00 14,9 10,2 - - 0,0
09.09.2019 21:00:00 14,9 10,0 - - 0,0
09.09.2019 20:00:00 15,1 10,1 - - 0,0

tt = Temperatura
td = dewpoint
tt -20cm = Temperatura -20cm
tt -100cm = Temperatura -100cm
rr = precipitazioni

Stazioni seguenti

WeatherPro
AMSI
MeteoEarth